Date,TemperatureHighF,TemperatureAvgF,TemperatureLowF,DewpointHighF,DewpointAvgF,DewpointLowF,HumidityHigh,HumidityAvg,HumidityLow,PressureMaxIn,PressureMinIn,WindSpeedMaxMPH,WindSpeedAvgMPH,GustSpeedMaxMPH,PrecipitationSumIn
2013-5-1,77.0,66.4,52.0,37.0,7.3,-38.0,50,18,1,30.21,29.80,30,15,50,0.00
2013-5-2,75.0,61.1,51.0,-3.0,-13.9,-34.0,9,5,1,30.32,30.19,20,8,31,0.00
2013-5-3,83.0,64.4,47.0,25.0,-0.7,-29.0,18,9,1,30.21,29.86,19,11,26,0.00
2013-5-4,81.0,72.2,63.0,35.0,27.7,21.0,33,20,11,29.86,29.66,23,13,31,0.00
2013-5-5,63.0,54.1,48.0,41.0,33.9,5.0,75,50,11,29.88,29.70,21,11,33,0.00
2013-5-6,58.0,51.4,47.0,47.0,42.0,38.0,91,71,52,29.94,29.85,18,10,29,0.06
2013-5-7,58.0,51.6,46.0,42.0,39.9,38.0,80,65,47,29.98,29.91,31,18,42,0.01
2013-5-8,67.0,57.2,50.0,45.0,42.4,38.0,74,59,41,30.05,29.92,28,18,40,0.00
2013-5-9,70.0,59.8,55.0,52.0,45.7,43.0,71,60,40,30.10,30.02,23,16,37,0.13
2013-5-10,82.0,67.2,57.0,49.0,43.1,-99.9,71,47,18,30.15,30.08,23,14,37,0.01
2013-5-11,86.0,74.0,60.0,48.0,39.2,-99.9,63,34,11,30.21,30.11,22,11,34,0.00
2013-5-12,90.0,80.5,72.0,48.0,41.7,22.0,42,27,9,30.21,30.06,23,12,32,0.00
2013-5-13,91.0,80.5,67.0,47.0,37.4,28.0,39,23,11,30.12,30.01,23,14,34,0.00
2013-5-14,84.0,72.5,62.0,41.0,33.0,4.0,41,25,5,30.02,29.90,29,16,45,0.00
2013-5-15,82.0,71.7,64.0,47.0,38.9,28.0,54,32,17,29.99,29.90,37,26,50,0.00
2013-5-16,71.0,60.2,55.0,41.0,22.5,-99.9,60,36,23,29.91,29.85,36,29,54,0.00
2013-5-17,66.0,58.8,53.0,44.0,37.7,-99.9,68,51,36,29.92,29.81,37,28,56,0.00
2013-5-18,72.0,63.0,56.0,37.0,30.9,27.0,46,31,20,30.03,29.87,39,27,53,0.00
2013-5-19,76.0,66.0,57.0,39.0,33.6,28.0,44,31,21,30.04,29.93,39,21,49,0.00
2013-5-20,81.0,69.8,53.0,39.0,28.0,16.0,52,24,9,30.09,29.98,24,11,30,0.00
2013-5-21,82.0,73.0,59.0,35.0,27.9,17.0,37,20,13,30.00,29.82,29,16,44,0.00
2013-5-22,65.0,57.8,51.0,37.0,29.6,21.0,42,34,22,29.85,29.72,36,24,55,0.00
2013-5-23,65.0,56.6,50.0,24.0,18.7,11.0,31,23,15,29.88,29.69,41,22,62,0.00
2013-5-24,76.0,62.5,51.0,33.0,25.7,9.0,37,26,8,29.95,29.85,34,15,47,0.00
2013-5-25,73.0,64.5,57.0,34.0,27.3,20.0,41,26,14,29.94,29.84,35,21,52,0.00
2013-5-26,70.0,61.6,55.0,41.0,35.2,29.0,48,38,27,29.98,29.88,38,26,55,0.00
2013-5-27,71.0,62.2,57.0,41.0,38.0,33.0,53,41,26,29.95,29.80,41,32,62,0.00
2013-5-28,63.0,58.9,53.0,48.0,45.1,37.0,75,60,46,29.85,29.72,48,32,67,0.00
2013-5-29,71.0,63.5,56.0,50.0,44.2,38.0,63,50,35,29.91,29.74,38,27,54,0.00
2013-5-30,79.0,69.6,61.0,49.0,37.5,18.0,60,32,13,29.91,29.79,39,26,52,0.00
2013-5-31,89.0,75.3,65.0,41.0,31.7,6.0,42,23,9,30.01,29.84,42,18,56,0.00